Flag for France Weather past 2 weeks in Auxerre, France

Now
77 °F

Passing clouds.


Feels Like: 79 °F
Forecast: 74 / 94 °F
Wind: 5 mph from East

Location: Troyes Airport

Current Time: Jul 3, 2015 at 9:58:16 AM

Latest Report: Jul 3, 2015 at 9:30 AM


Visibility: N/A

Pressure: 30.21 "Hg

Humidity: 69%

Dew point: 66 °F

Location of AuxerreLocation

Historic Weather in Auxerre — Graph

°F

Auxerre temperature yesterday

Maximum temperature yesterday: 97 °F (at 4:00 PM)
Minimum temperature yesterday: 66 °F (at 5:30 AM)
Average temperature yesterday: 82 °F

Past Weeks' High & Low Weather Summary

 TemperatureHumidityPressure
High102 °F (Jul 1, 6:00 PM)100% (Jun 19, 2:00 AM)30.24 "Hg (Jun 19, 2:00 AM)
Low43 °F (Jun 24, 3:00 AM)24% (Jul 1, 5:00 PM)29.83 "Hg (Jun 22, 4:30 PM)
Average68 °F65%30.09 "Hg
* Reported Jun 18 8:00 AM — Jul 3 8:30 AM, Auxerre, Weather by CustomWeather, © 2015

Note: Actual official high and low records may vary slightly from our data, if they occured in-between our weather recording intervals... More about our weather records

Advertising

Auxerre weather history for previous 24 hours

 ConditionsComfort  
Time TempWeatherWind HumidityBarometerVisibility
8:30 AM
Fri, Jul 3
72 °FSunny.2 mph73%30.21 "Hg10 mi
7:30 AM68 °FSunny.5 mph83%30.24 "Hg10 mi
7:00 AM66 °FSunny.6 mph88%30.24 "Hg10 mi
6:30 AM64 °FClear.6 mph94%30.21 "Hg10 mi
6:00 AM64 °FClear.5 mph94%30.21 "Hg10 mi
5:30 AM64 °FClear.7 mph94%30.21 "Hg6 mi
4:30 AM66 °FClear.3 mph94%30.21 "Hg10 mi
4:00 AM68 °FClear.5 mph94%30.21 "Hg10 mi
3:30 AM68 °FClear.6 mph94%30.18 "Hg10 mi
3:00 AM68 °FClear.6 mph94%30.18 "Hg10 mi
2:30 AM68 °FClear.6 mph94%30.18 "Hg10 mi
2:00 AM68 °FClear.5 mph88%30.18 "Hg10 mi
1:30 AM70 °FClear.5 mph88%30.18 "Hg10 mi
1:00 AM72 °FClear.3 mph83%30.18 "Hg10 mi
12:30 AM73 °FClear.6 mph83%30.18 "Hg10 mi
11:30 PM
Thu, Jul 2
75 °FClear.6 mph78%30.15 "Hg10 mi
11:00 PM75 °FClear.7 mph78%30.15 "Hg10 mi
10:30 PM77 °FSunny.6 mph79%30.15 "Hg10 mi
10:00 PM79 °FSunny.5 mph74%30.12 "Hg10 mi
9:30 PM84 °FSunny.7 mph62%30.12 "Hg10 mi
9:00 PM86 °FSunny.3 mph59%30.09 "Hg10 mi
8:30 PM90 °FSunny.6 mph49%30.09 "Hg10 mi
8:00 PM91 °FSunny.9 mph46%30.09 "Hg10 mi
7:30 PM93 °FSunny.10 mph41%30.07 "Hg10 mi
7:00 PM95 °FSunny.13 mph36%30.07 "Hg10 mi
6:30 PM95 °FSunny.10 mph34%30.07 "Hg10 mi
6:00 PM95 °FSunny.13 mph32%30.07 "Hg10 mi
5:30 PM95 °FPassing clouds.15 mph32%30.04 "HgN/A
5:00 PM97 °FSunny.15 mph30%30.04 "Hg10 mi
4:30 PM97 °FPassing clouds.14 mph30%30.04 "HgN/A
4:00 PM97 °FPassing clouds.13 mph30%30.04 "HgN/A
3:30 PM95 °FPassing clouds.10 mph30%30.04 "HgN/A
3:00 PM95 °FSunny.5 mph30%30.01 "Hg10 mi
2:30 PM95 °FPassing clouds.12 mph30%30.04 "HgN/A
2:00 PM95 °FPassing clouds.8 mph28%30.04 "HgN/A
1:30 PM93 °FPassing clouds.8 mph30%30.04 "HgN/A
1:00 PM91 °FPassing clouds.9 mph34%30.04 "HgN/A
12:30 PM90 °FPassing clouds.7 mph33%30.04 "HgN/A
12:00 PM88 °FSunny.10 mph35%30.04 "Hg10 mi
11:30 AM90 °FPassing clouds.12 mph33%30.04 "HgN/A
11:00 AM86 °FPassing clouds.14 mph40%30.04 "HgN/A
10:30 AM84 °FSunny.10 mph43%30.04 "Hg10 mi
10:00 AM84 °FSunny.8 mph45%30.04 "Hg10 mi
9:30 AM81 °FPassing clouds.5 mph54%30.01 "HgN/A
9:00 AM79 °FPassing clouds.8 mph54%30.01 "HgN/A
Weather by CustomWeather, © 2015

See weather overviewHow to use our weather pages